Tracking 35274 objects as of 11-Sep-2026
HD Live streaming from Space Station
objects crossing your sky now

STARLINK-3868

Track STARLINK-3868 now!
10-day predictions
STARLINK-3868 is classified as:


NORAD ID: 52649
Int'l Code: 2022-052BD
Launch date: May 14, 2022
Source: United States (US)
Launch site: AIR FORCE EASTERN TEST RANGE (AFETR)
Your satellite tracking list
Your tracking list is empty




NASA's NSSDC Master Catalog

Two Line Element Set (TLE):
1 52649U 22052BD  26254.07789386 -.00000391  00000-0 -83460-6 0  9996
2 52649  53.1592 134.6771 0001199  97.5953 262.5185 15.31707326239299
Source of the keplerian elements: AFSPC